Notices

What's New in latest Release from April 7th, 2021:

- Updated Glossary, including Speed of Maximum Gust, and Total Hourly Precipitation

- Updated national and regional climate services offices contacts and prices information

- Addition of station inventory lists for 1981-2010, 1971-2000, and 1961-1990 Normals.

If you haven't already, please take our survey and provide feedback about our website: https://eccc.sondage-survey.ca/f/LanguageSelection.aspx?s=442ca660-fcf1-47c0-95a9-59707d6fd709

Hourly Data Report for October 11, 2006

TORONTO CITY
ONTARIO

43°40'00.000" N
79°24'00.000" W
112.50 m
6158355
71508
XTO

Download Data

Hourly Data (October 2006)
Hourly Data Report for October 11, 2006
TIME
LST
Temp Definition
°C
Dew Point Definition
°C
Rel Hum Definition
%
Precip. Amount Definition
mm

Wind Dir Definition
10's deg

Wind Spd Definition
km/h
Visibility Definition
km
Stn Press Definition
kPa
Hmdx Definition


Wind Chill Definition


Weather Definition


00:00 13.3 9.5 78   LegendMM LegendMM   99.75     LegendNANA
01:00 13.3 10.1 81   LegendMM LegendMM   99.63     LegendNANA
02:00 13.1 11.2 88   LegendMM LegendMM   99.56     LegendNANA
03:00 12.8 12.1 96   LegendMM LegendMM   99.44     LegendNANA
04:00 12.9 12.7 99   LegendMM LegendMM   99.31     LegendNANA
05:00 13.3 13.1 99   LegendMM LegendMM   99.18     LegendNANA
06:00 13.5 13.3 99   LegendMM LegendMM   99.11     LegendNANA
07:00 14.0 13.9 99   LegendMM LegendMM   99.09     LegendNANA
08:00 14.2 14.1 99   LegendMM LegendMM   99.10     LegendNANA
09:00 14.9 14.8 99   LegendMM LegendMM   98.94     LegendNANA
10:00 15.1 14.9 99   LegendMM LegendMM   98.95     LegendNANA
11:00 16.0 15.5 97   LegendMM LegendMM   98.85     LegendNANA
12:00 15.7 15.3 97   LegendMM LegendMM   98.80     LegendNANA
13:00 16.5 16.0 97   LegendMM LegendMM   98.66     LegendNANA
14:00 17.2 15.7 91   LegendMM LegendMM   98.57     LegendNANA
15:00 18.0 15.5 85   LegendMM LegendMM   98.47     LegendNANA
16:00 17.7 15.1 85   LegendMM LegendMM   98.45     LegendNANA
17:00 16.9 15.2 90   LegendMM LegendMM   98.40     LegendNANA
18:00 16.2 15.5 96   LegendMM LegendMM   98.32     LegendNANA
19:00 16.1 15.5 96   LegendMM LegendMM   98.26     LegendNANA
20:00 16.3 15.8 97   LegendMM LegendMM   98.17     LegendNANA
21:00 16.5 15.7 95   LegendMM LegendMM   98.09     LegendNANA
22:00 15.8 15.2 96   LegendMM LegendMM   98.06     LegendNANA
23:00 14.7 14.2 97   LegendMM LegendMM   98.04     LegendNANA

Notes on Data Quality.

Legend

  • E = Estimated
  • M = Missing
  • NA = Not Available*
  • [empty] = Indicates an unobserved value
Date modified: